This demonstration page uses our WeatherBlox Daily Observations layout. Learn more.

38.88101, -77.10428

Hourly Observations for August 3, 2017

Temp ( °F °C ) Dew Point ( °F °C ) Humidity (%) Winds ( mph kmh ) Pressure ( in mb ) Visibility ( mi km ) Precip ( " mm )
12:52 am 00:52 Partly Cloudy 76 24.4 71 21.7 85 85 SE 6 9 30.08 1019 10 16.0934 0 0
1:52 am 01:52 Mostly Clear 75 23.9 70 21.1 84 84 SSE 7 11 30.07 1018 10 16.0934 0 0
2:52 am 02:52 Mostly Clear 75 23.9 70 21.1 84 84 E 3 6 30.07 1018 10 16.0934 0 0
3:52 am 03:52 Mostly Clear 75 23.9 70 21.1 84 84 ENE 6 9 30.06 1018 10 16.0934 0 0
4:52 am 04:52 Clear 73 22.8 69 20.6 87 87 NE 6 9 30.06 1018 10 16.0934 0 0
5:52 am 05:52 Mostly Clear 73 22.8 69 20.6 87 87 NE 8 13 30.07 1018 10 16.0934 0 0
6:52 am 06:52 Mostly Sunny 73 22.8 69 20.6 87 87 NE 6 9 30.09 1019 10 16.0934 0 0
7:52 am 07:52 Mostly Sunny 74 23.3 70 21.1 88 88 ENE 3 6 30.11 1020 10 16.0934 0 0
8:52 am 08:52 Mostly Sunny 77 25 71 21.7 82 82 NNE 5 7 30.12 1020 10 16.0934 0 0
9:52 am 09:52 Partly Cloudy 80 26.7 71 21.7 74 74 Calm 30.12 1020 10 16.0934 0 0
10:52 am 10:52 Mostly Cloudy 84 28.9 72 22.2 67 67 N 3 6 30.12 1020 10 16.0934 0 0
11:52 am 11:52 Partly Cloudy 86 30 71 21.7 61 61 NNE 3 6 30.12 1020 10 16.0934 0 0
12:52 pm 12:52 Partly Cloudy 87 30.6 71 21.7 59 59 Calm 30.1 1019 10 16.0934 0 0
1:52 pm 13:52 Partly Cloudy 88 31.1 70 21.1 55 55 S 6 9 30.08 1019 10 16.0934 0 0
2:52 pm 14:52 Partly Cloudy 89 31.7 70 21.1 53 53 S 9 15 30.06 1018 10 16.0934 0 0
3:52 pm 15:52 Mostly Cloudy 89 31.7 71 21.7 55 55 S 12 19 30.03 1017 10 16.0934 0 0
4:52 pm 16:52 Mostly Cloudy 88 31.1 73 22.8 61 61 S 13 20 30.03 1017 10 16.0934 0 0
5:52 pm 17:52 Mostly Cloudy 87 30.6 73 22.8 63 63 S 9 15 30.02 1017 10 16.0934 0 0
6:40 pm 18:40 Cloudy with Rain 80 26.7 72 22.2 76 76 WNW 15 24 30.06 1018 5 8.0467 0 0.0254
6:43 pm 18:43 Cloudy with Thunderstorms 77 25 72 22.2 85 85 NW 20 31 30.06 1018 5 8.0467 0.01 0.254
6:52 pm 18:52 Mostly Cloudy with Light Thunderstorms 73 22.8 68 20 84 84 NNW 17 28 30.06 1018 9 14.48406 0.02 0.508
7:04 pm 19:04 Mostly Cloudy with Thunderstorms 73 22.8 69 20.6 87 87 NNE 15 24 30.06 1018 4 6.43736 0.03 0.762
7:21 pm 19:21 Cloudy with Light Rain 75 23.9 70 21.1 84 84 NE 9 15 30.06 1018 10 16.0934 0.04 1.016
7:39 pm 19:39 Mostly Cloudy 74 23.3 71 21.7 91 91 NE 8 13 30.06 1018 10 16.0934 0.04 1.016
7:52 pm 19:52 Mostly Cloudy 74 23.3 71 21.7 91 91 NE 6 9 30.06 1018 10 16.0934 0.04 1.016
8:00 pm 20:00 Mostly Cloudy 74 23.3 71 21.7 91 91 NE 6 9 30.06 1018 10 16.0934 0 0
8:52 pm 20:52 Partly Cloudy 75 23.9 72 22.2 90 90 N 7 11 30.06 1018 10 16.0934 0 0
9:52 pm 21:52 Partly Cloudy 75 23.9 72 22.2 90 90 N 7 11 30.07 1018 10 16.0934 0 0
10:52 pm 22:52 Partly Cloudy 75 23.9 72 22.2 90 90 NE 5 7 30.06 1018 10 16.0934 0 0
11:52 pm 23:52 Mostly Clear 75 23.9 73 22.8 94 94 Calm 30.05 1018 10 16.0934 0 0

Powered by AerisWeather